Dewpoint
1 1 2 -0 -0 -0 1 1 1 -0 -1 1 1 0 -1 -0 -0 0 1 3 6 6 3 5 4 3 1 -1 -2 -4 -6 -7 -7 -8 -10 -13 -17 -19 -20 -22 -24 -25 -26 -27
1 1 -1 -1 -0 1 1 2 2 0 -0 1 1 1 0 -0 -1 -0 -0 1 3 4 3 3 3 2 0 -2 -4 -6 -7 -6 -7 -10 -13 -18 -20 -20 -20 -20 -20 -21 -23 -25
2 -2 -0 -0 -0 2 2 2 2 2 1 0 2 1 1 -0 -1 -0 0 0 1 3 3 3 3 1 -1 -3 -5 -6 -5 -6 -7 -7 -6 -8 -7 -4 -4 -5 -10 -15 -17 -22
-0 -1 1 1 1 0 2 0 1 1 2 3 1 3 1 -0 -1 -2 -0 1 1 1 2 2 2 1 -1 -4 -5 -5 -6 -6 -3 1 4 5 1 -5 -8 -10 -11 -12 -12 -15
-3 0 -0 0 0 0 1 1 1 1 3 3 3 4 0 1 -0 -2 -2 -1 0 1 1 1 2 1 -0 -3 -4 -5 -5 -4 3 6 5 5 3 3 3 1 -3 -12 -14 -14
-2 -2 -1 -3 -1 0 0 1 2 3 3 6 3 3 1 1 0 -2 -2 -1 -0 0 0 1 1 1 -0 -1 -3 -4 -5 1 3 3 2 0 2 1 -6 -10 -11 -13 -12 -12
0 0 -1 -0 0 -1 0 2 4 4 6 5 3 4 2 2 -0 -2 -2 -1 -1 -0 -0 -1 0 1 0 -0 -1 -4 -5 0 -4 -9 -6 2 3 2 -4 -9 -10 -12 -12 -10
1 3 3 2 2 3 2 1 3 5 3 2 3 4 2 0 -1 -2 -1 -1 -0 0 0 -0 -0 0 1 -0 -0 -3 -3 -4 -2 -7 2 3 3 0 -9 -9 -9 -12 -13 -11
2 3 2 3 3 4 5 5 4 7 7 8 3 2 1 0 -0 -1 -1 -0 1 1 0 0 -0 0 1 0 -0 0 -2 -1 0 -4 3 3 1 -6 -8 -8 -10 -12 -13 -13
2 4 4 4 2 2 4 3 6 6 9 7 2 4 3 2 1 -0 1 2 2 2 1 1 1 -0 1 1 -0 -0 -1 1 -5 2 2 2 2 -3 -8 -8 -10 -9 -10 -12
2 4 5 4 4 5 5 5 6 7 9 13 12 7 1 -0 0 2 1 2 2 2 2 3 2 1 -0 1 -0 -0 -2 -3 -6 -1 1 1 -2 -8 -8 -8 -8 -8 -9 -8
6 6 6 5 5 4 5 7 6 7 7 10 10 9 1 2 1 2 2 2 2 3 2 1 0 -0 -1 -1 -1 -1 -5 -6 -6 -2 -1 2 2 -7 -7 -7 -7 -7 -7 -7
6 7 8 8 6 6 6 6 6 7 7 9 10 6 1 1 1 2 1 2 2 0 -1 -1 -2 -2 -2 -2 -2 -4 -6 -6 -4 1 2 1 1 -7 -5 -3 -3 -3 -4 -6
7 6 6 7 5 4 6 6 6 7 10 7 6 4 2 1 2 2 1 2 2 1 -0 0 1 1 1 1 2 2 0 -1 -3 -3 -1 1 0 0 0 0 -0 -0 -1 -1
4 6 5 4 4 4 5 5 4 6 5 8 6 4 2 2 1 -2 0 -3 -6 -6 -6 -5 -5 -4 -5 -8 -8 -8 -7 -6 -6 -3 -1 -0 -0 -0 -0 -0 0 0 0 -0
6 6 7 7 3 2 4 3 3 4 3 3 3 4 0 -3 -5 -6 -8 -8 -8 -6 -5 -4 -3 -3 -3 -3 -3 -2 -3 -4 -3 -2 -1 -2 -2 -2 -2 -1 -1 -1 -1 -1
6 7 7 6 2 3 5 4 2 2 1 2 4 2 -1 -3 -6 -6 -7 -6 -5 -3 -3 -3 -3 -3 -4 -4 -4 -4 -5 -5 -5 -4 -5 -5 -6 -5 -5 -5 -4 -4 -3 -3
6 6 6 6 4 7 1 -1 -1 0 0 -0 0 0 -0 -4 -4 -4 -4 -3 -2 -2 -3 -3 -3 -4 -4 -5 -6 -6 -6 -7 -8 -10 -11 -12 -11 -11 -11 -10 -9 -8 -7 -6
5 6 8 8 6 3 -0 -1 1 3 2 -2 -1 -3 -5 -5 -4 -2 -1 -2 -2 -3 -4 -4 -4 -4 -6 -9 -11 -11 -11 -12 -13 -12 -11 -11 -11 -11 -10 -10 -9 -8 -8 -7
5 5 7 8 8 4 0 -3 -6 -2 4 -4 -3 -4 -8 -9 -3 -2 -1 -2 -3 -5 -5 -6 -6 -9 -12 -13 -13 -13 -14 -14 -13 -11 -11 -11 -11 -10 -10 -10 -9 -9 -9 -9
6 6 7 7 8 6 0 -2 -2 7 6 -5 -6 -6 -6 -3 -1 -0 -2 -3 -4 -5 -6 -10 -13 -15 -15 -14 -13 -14 -13 -13 -12 -12 -12 -12 -12 -11 -12 -11 -11 -10 -10 -10
4 5 6 6 9 6 -1 -2 5 3 -1 -3 -5 -2 -0 1 -0 -1 -3 -5 -6 -8 -12 -16 -18 -18 -16 -14 -13 -14 -12 -12 -13 -14 -14 -14 -13 -13 -13 -12 -11 -11 -11 -10
4 2 5 4 4 2 -1 -0 1 1 1 -1 -2 -1 2 0 -1 -3 -4 -6 -8 -14 -18 -19 -19 -18 -17 -16 -14 -13 -12 -13 -15 -15 -16 -15 -14 -14 -12 -12 -12 -12 -11 -11
1 2 4 4 2 3 3 3 2 1 0 -1 -1 -1 1 -1 -2 -4 -6 -9 -15 -18 -19 -18 -17 -16 -15 -14 -13 -13 -13 -14 -15 -15 -15 -15 -15 -14 -13 -13 -12 -12 -12 -12
3 4 4 6 4 2 2 2 3 1 0 0 1 0 -2 -2 -4 -7 -10 -14 -17 -18 -18 -16 -15 -14 -14 -14 -14 -14 -14 -14 -15 -15 -15 -15 -14 -14 -13 -13 -13 -12 -12 -12
3 4 6 5 0 2 2 3 2 1 1 0 -1 -4 -5 -6 -9 -14 -15 -16 -17 -17 -15 -15 -14 -14 -14 -14 -14 -15 -14 -14 -14 -14 -14 -14 -14 -13 -13 -13 -14 -13 -13 -13
Wind_Speed
4 8 8 8 6 7 6 7 11 10 3 6 4 7 5 5 4 2 2 5 7 9 9 12 14 13 12 11 10 10 9 8 6 4 2 3 6 8 10 12 14 16 17 19
7 11 8 6 8 9 9 9 10 8 3 6 4 9 4 3 4 4 1 5 9 11 11 12 15 16 14 13 13 13 12 11 9 5 3 3 6 10 14 16 17 18 19 20
11 5 3 3 5 8 10 12 9 11 7 11 8 12 6 6 6 5 4 2 6 11 13 15 18 20 19 17 16 15 15 13 10 7 4 8 9 10 10 15 18 22 20 19
9 8 8 9 12 10 10 7 12 10 7 8 0 8 5 6 8 7 6 4 5 9 14 16 19 21 23 21 21 20 16 12 8 4 7 15 12 11 15 21 25 25 25 24
4 6 6 7 4 8 5 1 5 7 10 10 12 7 7 9 7 7 6 4 4 8 11 14 18 20 21 23 24 22 21 16 10 13 16 23 17 21 21 23 24 26 27 26
14 5 7 9 4 8 2 10 6 6 8 11 15 14 10 6 9 8 5 3 4 7 8 11 15 19 22 22 25 26 22 15 9 6 7 9 10 12 16 18 20 21 22 22
6 11 11 6 12 14 11 10 7 7 6 10 5 6 11 7 8 8 5 6 3 3 5 9 14 20 24 24 26 27 23 15 8 5 4 7 12 15 14 21 22 22 21 20
3 5 1 1 3 3 3 7 7 10 11 11 7 7 3 4 9 5 0 1 5 8 6 10 13 18 22 25 24 26 21 17 12 8 7 16 24 16 16 22 23 23 23 23
3 3 3 5 1 4 4 3 5 7 3 7 10 5 9 7 5 5 2 3 10 14 16 13 14 16 20 25 25 23 20 15 13 8 13 19 19 21 19 24 24 24 24 25
1 4 0 2 2 7 4 4 3 2 5 11 6 6 9 7 7 5 2 7 15 21 15 14 14 15 16 21 23 21 20 15 12 10 19 26 29 23 21 25 24 25 26 26
2 4 6 3 1 4 1 2 4 5 4 5 6 6 6 7 6 4 7 13 17 13 14 14 14 12 12 14 18 17 19 15 17 15 26 33 20 21 22 25 26 27 27 26
2 1 5 2 4 2 1 3 2 2 4 4 3 8 10 5 3 9 13 14 12 11 11 11 12 9 5 7 12 13 16 19 18 23 34 33 28 24 25 26 26 26 27 26
2 2 4 5 4 5 3 3 4 2 2 6 4 6 5 5 12 8 9 10 8 9 11 13 14 13 9 4 3 6 9 15 25 34 37 30 26 25 28 27 26 25 25 27
3 1 5 7 8 4 5 6 9 10 4 12 16 24 21 17 10 7 5 6 7 9 12 13 12 12 10 8 7 11 18 21 19 18 20 23 23 22 24 25 25 25 25 25
3 4 5 9 10 10 10 12 14 18 19 16 23 22 21 17 6 3 5 7 10 12 13 14 13 13 12 8 8 9 11 14 17 17 17 17 19 22 24 26 27 28 28 29
0 4 1 5 11 12 13 17 19 20 21 20 20 20 9 8 8 7 7 7 9 10 10 10 11 11 12 13 13 13 15 18 18 16 16 17 19 20 21 22 23 24 26 28
3 2 2 6 7 7 11 18 17 13 11 13 14 10 6 3 5 6 6 7 8 7 8 10 11 11 12 14 15 16 18 19 20 20 20 21 22 23 24 25 27 28 29 30
5 5 4 5 8 5 1 1 5 10 15 15 16 14 1 3 9 8 7 6 6 6 7 8 9 11 12 13 15 16 17 17 19 20 22 22 23 24 25 26 27 28 29 32
10 5 3 3 7 13 18 6 4 3 12 8 8 3 6 11 11 8 6 6 5 5 6 7 8 9 11 14 15 15 14 15 16 18 19 21 22 24 25 25 26 27 28 30
4 4 3 2 3 5 2 4 1 2 10 2 3 3 6 10 6 2 4 3 4 5 6 7 9 10 12 13 14 14 15 16 18 20 22 22 23 25 27 27 29 29 29 32
4 3 8 7 6 7 7 3 3 3 2 5 5 7 7 5 0 6 6 3 2 4 6 8 9 9 10 12 13 14 15 18 20 21 23 24 25 27 26 28 29 30 31 32
10 8 5 7 5 10 7 6 5 2 1 5 8 9 6 3 6 7 6 3 1 4 7 8 8 9 10 12 14 15 17 19 22 24 25 26 26 27 28 29 29 30 30 32
7 8 4 8 5 4 6 7 4 5 7 8 12 10 5 8 8 8 5 1 2 5 6 7 9 10 11 13 14 17 18 22 25 26 26 27 27 28 28 29 31 32 30 32
10 3 5 5 9 8 9 10 9 7 9 10 11 8 7 9 9 7 3 0 2 4 5 7 9 10 12 13 14 16 20 22 25 26 27 28 29 30 29 30 29 30 30 33
3 7 7 4 14 20 23 17 12 9 10 12 11 8 10 11 9 6 3 1 0 2 5 7 9 10 12 14 15 18 20 23 25 26 27 28 29 30 32 31 31 31 29 28
10 9 5 5 16 12 18 10 9 12 13 12 11 12 10 9 8 6 4 3 1 3 5 7 9 11 13 14 16 19 20 22 24 26 27 28 30 30 31 34 40 31 31 30
Wind_Direction
210 245 239 292 305 301 278 268 273 277 299 290 289 290 307 16 329 297 206 194 192 186 194 198 204 205 200 191 184 177 178 169 146 111 49 2 354 345 350 342 336 333 329 327
232 251 305 281 273 256 254 266 275 279 133 274 304 293 337 51 66 27 335 192 195 190 195 209 212 212 205 203 198 194 185 177 162 143 112 36 7 346 343 346 340 336 330 330
255 281 283 270 276 249 243 265 278 285 308 260 270 257 180 119 112 88 78 123 185 203 207 208 216 216 211 207 203 195 189 185 180 167 87 25 7 360 351 344 341 336 333 329
260 263 257 260 261 247 259 250 262 277 278 280 79 289 192 152 123 100 99 127 164 196 214 217 215 213 213 208 204 201 198 194 194 202 306 310 336 345 340 340 339 338 335 334
215 205 219 254 278 200 254 81 285 282 267 278 240 262 244 167 166 114 89 102 156 208 214 224 224 221 215 214 212 207 207 211 245 278 280 279 307 309 318 328 328 317 321 320
265 262 261 268 230 211 169 278 249 246 261 251 252 249 275 203 184 135 112 108 179 200 224 239 232 224 218 213 215 218 218 235 263 282 287 293 305 323 331 316 311 314 314 310
227 240 247 259 261 245 249 262 271 246 213 259 55 258 257 112 132 121 104 77 111 178 254 267 238 228 222 218 216 221 220 241 232 217 251 314 324 318 314 313 315 317 314 307
258 164 355 69 290 344 226 259 247 277 282 301 134 255 199 104 143 136 85 29 45 347 318 319 275 244 232 227 221 222 226 226 233 229 316 329 322 310 300 309 312 314 313 308
211 153 128 51 344 319 125 242 2 288 233 266 260 252 252 152 177 191 210 46 357 348 350 323 296 267 245 231 225 219 224 215 230 237 312 328 324 291 293 304 310 313 314 309
126 234 269 111 238 69 342 40 280 302 294 289 272 240 274 191 201 188 106 358 350 353 341 325 306 282 259 234 226 219 218 215 217 286 317 319 299 280 290 301 307 312 312 306
268 254 150 224 21 8 205 122 60 357 5 316 313 307 27 328 1 358 7 353 350 348 341 337 327 303 273 243 230 218 222 226 240 298 315 309 289 277 287 296 304 309 308 304
42 293 240 52 82 23 337 127 115 165 262 220 220 264 288 298 20 8 343 344 346 353 6 8 9 360 319 248 219 224 238 249 255 297 296 298 290 279 288 295 303 308 307 304
51 235 247 182 156 176 237 173 219 199 104 221 257 256 132 109 298 354 350 354 11 22 30 33 34 35 46 67 189 246 273 285 281 287 291 295 287 279 285 287 288 292 298 301
315 265 274 283 315 319 275 233 214 227 227 273 263 284 286 295 328 7 1 38 44 49 45 42 37 41 42 31 344 305 283 285 291 294 297 294 287 287 288 291 291 288 287 284
344 266 274 280 289 288 278 276 254 247 259 268 283 289 299 320 15 98 82 81 74 60 51 46 41 39 36 25 354 332 317 315 314 318 315 309 300 296 295 294 292 289 285 283
273 271 267 271 277 273 270 261 256 264 273 273 280 285 39 95 112 106 91 81 67 53 43 36 35 31 22 13 4 352 342 336 337 339 334 328 322 317 313 310 307 302 295 289
262 215 253 274 313 317 277 250 246 245 262 282 291 326 358 133 128 113 102 79 64 48 40 33 29 22 11 0 352 347 340 335 334 335 335 332 328 324 321 316 312 309 306 302
222 240 262 278 295 249 337 224 268 283 292 283 291 303 7 123 124 106 86 83 69 54 38 26 17 9 1 353 346 342 338 339 337 334 332 332 330 328 325 321 317 312 308 304
238 219 241 254 257 290 286 263 255 256 300 8 333 47 118 145 140 95 80 69 70 56 34 18 6 358 350 347 344 343 344 343 344 342 340 336 333 330 327 324 322 318 314 309
162 202 223 170 246 260 55 100 112 302 269 117 145 201 171 182 238 119 136 96 73 44 18 3 352 344 342 346 350 351 349 346 341 338 334 332 329 327 325 323 322 321 317 314
151 171 216 231 245 269 291 152 167 233 358 152 170 178 175 204 328 141 145 122 62 19 359 354 346 348 349 351 351 348 343 341 338 335 332 330 328 325 322 319 319 318 316 315
180 185 196 217 226 256 140 149 214 49 132 185 172 154 147 164 160 151 154 140 34 353 349 354 356 353 350 350 345 344 340 338 336 334 331 327 324 323 320 318 318 317 315 313
224 213 204 210 218 103 194 254 256 275 277 203 185 188 236 192 177 171 168 150 337 349 355 357 353 347 343 344 345 341 337 337 334 333 328 326 323 323 319 320 319 318 318 317
224 189 225 240 242 268 270 259 256 252 227 219 210 224 204 180 175 175 172 213 347 353 354 347 343 341 341 342 343 342 337 335 334 329 327 326 325 322 321 318 317 316 316 316
290 171 226 258 278 282 275 269 263 224 215 221 220 189 176 171 174 180 181 189 51 354 349 340 338 337 336 339 342 339 336 333 330 328 326 324 322 324 320 317 316 316 313 313
211 228 217 242 266 281 282 296 222 204 214 210 177 162 164 170 174 173 171 162 99 349 333 335 336 332 335 339 337 335 333 331 329 325 324 324 324 324 321 320 318 317 316 317
Height
1535 1531 1528 1523 1524 1527 1529 1530 1530 1520 1516 1521 1516 1515 1512 1516 1519 1519 1522 1526 1529 1531 1530 1531 1533 1535 1537 1537 1537 1536 1537 1539 1540 1541 1542 1542 1541 1543 1539 1538 1536 1535 1533 1531
1535 1529 1526 1528 1529 1531 1529 1528 1524 1515 1518 1521 1512 1513 1511 1516 1519 1520 1520 1522 1526 1529 1530 1530 1531 1533 1535 1537 1537 1536 1536 1536 1536 1537 1538 1539 1539 1541 1540 1537 1535 1533 1530 1527
1528 1524 1530 1531 1527 1530 1526 1527 1523 1521 1515 1513 1514 1507 1510 1515 1517 1520 1521 1522 1524 1527 1529 1528 1528 1530 1532 1534 1536 1536 1536 1535 1534 1533 1534 1536 1538 1539 1539 1538 1534 1531 1528 1525
1524 1522 1527 1527 1526 1524 1524 1518 1519 1517 1519 1517 1511 1518 1503 1511 1513 1517 1519 1521 1523 1524 1526 1525 1525 1526 1528 1530 1532 1533 1534 1534 1533 1531 1531 1532 1535 1536 1535 1534 1532 1528 1523 1520
1520 1522 1522 1522 1519 1519 1517 1519 1519 1516 1515 1513 1511 1518 1495 1509 1513 1515 1518 1520 1522 1523 1523 1523 1524 1526 1527 1528 1529 1529 1529 1531 1530 1529 1528 1528 1531 1532 1530 1529 1527 1528 1524 1519
1520 1522 1522 1517 1518 1517 1517 1516 1516 1516 1512 1522 1506 1508 1500 1493 1505 1514 1519 1521 1521 1521 1521 1521 1522 1523 1524 1525 1526 1527 1528 1529 1529 1528 1527 1526 1527 1528 1528 1528 1527 1523 1520 1517
1517 1517 1516 1520 1518 1514 1517 1517 1522 1520 1520 1514 1502 1508 1498 1501 1510 1513 1516 1518 1519 1520 1518 1518 1518 1518 1521 1522 1521 1524 1527 1528 1527 1526 1525 1525 1524 1524 1525 1524 1522 1519 1517 1513
1517 1521 1516 1518 1516 1514 1514 1512 1520 1527 1515 1504 1510 1511 1496 1502 1510 1513 1516 1518 1518 1520 1517 1515 1516 1516 1518 1520 1520 1521 1524 1525 1525 1525 1525 1524 1522 1522 1521 1521 1519 1516 1513 1509
1519 1519 1520 1520 1518 1518 1517 1517 1516 1519 1525 1524 1503 1494 1496 1507 1510 1511 1514 1516 1517 1517 1514 1514 1514 1513 1514 1516 1517 1519 1521 1523 1523 1524 1523 1521 1520 1520 1518 1517 1514 1511 1508 1504
1516 1523 1520 1519 1519 1519 1516 1520 1522 1519 1535 1523 1495 1505 1501 1503 1506 1508 1511 1515 1515 1512 1513 1512 1511 1510 1509 1512 1514 1516 1518 1519 1520 1521 1519 1519 1517 1516 1514 1512 1510 1507 1503 1499
1516 1519 1520 1520 1519 1520 1521 1521 1528 1532 1541 1547 1536 1512 1500 1501 1504 1508 1510 1513 1514 1514 1513 1511 1509 1507 1507 1509 1513 1514 1514 1516 1517 1516 1516 1516 1514 1511 1509 1507 1504 1500 1497 1494
1522 1522 1522 1519 1525 1527 1526 1528 1531 1540 1541 1547 1551 1530 1502 1504 1510 1512 1514 1515 1515 1514 1512 1510 1507 1506 1506 1508 1511 1512 1512 1514 1514 1513 1513 1511 1508 1506 1504 1501 1498 1494 1492 1489
1523 1523 1525 1525 1529 1528 1526 1528 1530 1534 1545 1548 1545 1515 1503 1507 1507 1508 1515 1514 1514 1514 1513 1511 1509 1508 1507 1509 1511 1511 1512 1513 1513 1511 1506 1504 1501 1500 1498 1495 1492 1489 1486 1483
1528 1524 1524 1527 1522 1525 1530 1529 1530 1530 1542 1525 1517 1503 1500 1498 1501 1509 1515 1515 1516 1516 1514 1512 1513 1510 1510 1510 1511 1511 1510 1509 1505 1502 1500 1498 1496 1495 1494 1490 1486 1483 1480 1477
1529 1530 1528 1526 1526 1526 1528 1527 1523 1522 1518 1524 1509 1505 1498 1497 1507 1513 1514 1515 1516 1516 1515 1515 1514 1512 1511 1509 1510 1508 1507 1504 1501 1498 1496 1495 1493 1490 1487 1483 1480 1477 1473 1469
1531 1530 1537 1544 1525 1523 1525 1519 1516 1515 1512 1508 1503 1500 1500 1507 1512 1515 1516 1517 1517 1518 1517 1517 1515 1513 1511 1509 1508 1506 1503 1500 1497 1495 1493 1490 1486 1483 1480 1475 1471 1468 1464 1460
1532 1532 1534 1527 1519 1521 1524 1508 1507 1505 1503 1503 1504 1497 1505 1509 1513 1515 1517 1518 1518 1518 1518 1516 1514 1512 1510 1508 1506 1504 1501 1498 1494 1491 1489 1485 1482 1477 1473 1469 1464 1460 1455 1450
1530 1531 1530 1527 1522 1530 1501 1501 1500 1502 1502 1499 1497 1494 1500 1508 1516 1517 1517 1518 1518 1518 1517 1516 1514 1513 1511 1508 1505 1503 1500 1496 1493 1489 1485 1481 1476 1472 1467 1462 1458 1453 1448 1443
1530 1531 1531 1527 1515 1505 1499 1494 1501 1502 1501 1505 1506 1507 1508 1514 1516 1517 1517 1516 1517 1517 1516 1515 1514 1512 1510 1507 1504 1501 1498 1494 1491 1486 1482 1478 1473 1468 1463 1457 1452 1447 1441 1435
1530 1532 1533 1532 1530 1517 1494 1503 1505 1504 1499 1506 1509 1508 1509 1511 1509 1507 1515 1515 1516 1516 1515 1514 1512 1511 1509 1505 1502 1499 1496 1493 1489 1484 1479 1474 1469 1464 1458 1452 1446 1440 1435 1428
1525 1530 1528 1529 1525 1508 1495 1503 1506 1511 1501 1505 1507 1509 1509 1509 1511 1511 1511 1514 1514 1514 1513 1511 1510 1508 1506 1503 1500 1497 1494 1490 1486 1481 1476 1471 1465 1459 1454 1447 1441 1434 1428 1422
1508 1514 1519 1519 1520 1514 1499 1503 1505 1502 1503 1505 1507 1507 1509 1510 1509 1510 1512 1513 1513 1512 1511 1510 1508 1507 1504 1501 1498 1495 1491 1486 1482 1476 1472 1467 1462 1455 1449 1442 1436 1429 1423 1415
1502 1497 1500 1501 1495 1496 1498 1497 1499 1500 1501 1503 1504 1505 1505 1507 1510 1511 1511 1511 1511 1510 1509 1508 1507 1504 1502 1499 1495 1492 1488 1482 1477 1473 1468 1463 1457 1451 1445 1438 1430 1423 1417 1409
1495 1499 1497 1496 1489 1492 1495 1496 1496 1497 1497 1498 1500 1501 1504 1506 1508 1509 1509 1509 1508 1508 1507 1506 1504 1502 1500 1496 1492 1489 1484 1480 1474 1470 1464 1459 1452 1445 1439 1433 1427 1419 1412 1404
1493 1498 1493 1496 1492 1491 1489 1491 1493 1494 1495 1496 1497 1499 1502 1503 1505 1506 1506 1506 1506 1506 1505 1504 1502 1500 1497 1493 1489 1485 1481 1477 1472 1467 1461 1455 1448 1441 1433 1427 1421 1413 1407 1401
1494 1490 1490 1486 1485 1486 1486 1488 1488 1489 1492 1493 1495 1497 1499 1501 1502 1503 1503 1503 1503 1503 1502 1501 1500 1497 1494 1490 1487 1483 1479 1474 1469 1463 1457 1451 1443 1436 1429 1420 1409 1408 1400 1394